AirNav   Duncan Aviation - Near you to keep you flying
 
 1127 users online  

6KY8 Gateway Industrial Park Heliport
Jenkins, Kentucky, USA

GOING TO JENKINS?


FAA INFORMATION EFFECTIVE 11 AUGUST 2022

Location

FAA Identifier: 6KY8
Lat/Long: 37-09-35.9000N 082-39-49.6000W
37-09.598333N 082-39.826667W
37.1599722,-82.6637778
(estimated)
Elevation: 1770 ft. / 539 m (estimated)
From city: 3 miles SW of JENKINS, KY
Time zone: UTC -4 (UTC -5 during Standard Time)
Zip code: 41825

Heliport Operations

Heliport use: Private use. Permission required prior to landing
Activation date: 10/2010
Control tower: no
ARTCC: INDIANAPOLIS CENTER
FSS: LOUISVILLE FLIGHT SERVICE STATION
Attendance: UNATNDD
Wind indicator: yes
Segmented circle: no
Lights: SS-SR

Heliport Communications

WX AWOS-3 at LNP (12 nm SE): 118.6 (276-328-3727)

Nearby radio navigation aids

VOR radial/distance  VOR name  Freq  Var
GZGr308/34.5GLADE SPRING VOR/DME110.2002W

Heliport Services

Fuel available: A

Runway Information

Helipad H1

Dimensions: 40 x 40 ft. / 12 x 12 m
Surface: concrete
Runway edge lights: PERI
Latitude: 37-09.598333N
Longitude: 082-39.826667W
Elevation: 1770.0 ft.
Traffic pattern: leftleft
Obstructions: bldg
26 FT BLDG 30 FT SE OF PAD.

Heliport Ownership and Management from official FAA records

Ownership: Publicly-owned
Owner: LETCHER COUNTY FISCAL COURT
156 MAIN ST
WHITESBURG, KY 41858
Phone 606-633-2129
Manager: COUNTY JUDGE EXECUTIVE
156 MAIN ST., SUITE 107
WHITESBURG, KY 41858
Phone 606-633-2129

Heliport Operational Statistics

Aircraft based on the field: 1
Helicopters: 1
    

Additional Remarks

OWNER DESIRES ARPT NOT BE CHARTED.
FOR CD CTC INDIANAPOLIS ARTCC AT 317-247-2411.

Instrument Procedures

There are no published instrument procedures at 6KY8.

Some nearby airports with instrument procedures:

KLNP - Lonesome Pine Airport (12 nm SE)
KPBX - Pike County Airport-Hatcher Field (25 nm N)
KCPF - Wendell H Ford Airport (32 nm NW)
KSJS - Big Sandy Regional Airport (35 nm N)
I35 - Tucker-Guthrie Memorial Airport (38 nm SW)
 
Loc | Ops | Rwys | IFR | FBO | Links
Com | Nav | Svcs | Stats | Notes
Aerial photo
No photo
 
Sectional chart

 
Airport distance calculator
Flying to Gateway Industrial Park Heliport? Find the distance to fly.

From to 6KY8

Sunrise and sunset
Times for 19-Aug-2022
 Local
(UTC-4)
 Zulu
(UTC)
Morning civil twilight06:2410:24
Sunrise06:5110:51
Sunset20:1700:17
Evening civil twilight20:4400:44

Current date and time
Zulu (UTC)  20-Aug-2022 00:23:42
Local (UTC-4)  19-Aug-2022 20:23:42
 
METAR
KLNP 
14nm SE 
192355Z AUTO 16004KT 10SM -DZ SCT090 OVC110 19/17 A3012 RMK AO2 LTG DSNT W P0001
KPBX 
25nm N 
192235Z AUTO 14004KT 10SM SCT050 27/19 A3006 RMK AO2 T02650185
TAF
KSJS 
35nm N 
191739Z 1918/2018 VRB03KT P6SM FEW045 SCT100 FM201100 VRB03KT 3SM BR BKN050 FM201300 VRB03KT P6SM SCT050 BKN100
KJKL 
41nm NW 
191739Z 1918/2018 00000KT P6SM FEW045 SCT100
KTRI 
43nm S 
191733Z 1918/2018 12004KT P6SM -SHRA VCTS BKN070CB FM200100 00000KT P6SM BKN100 FM200900 00000KT 4SM BR SCT030 TEMPO 2010/2013 1SM BR SCT004 FM201400 00000KT P6SM SCT025
NOTAMs
Click for the latest NOTAMs
NOTAMs are issued by the DoD/FAA and will open in a separate window not controlled by AirNav.

 

 
 

Would you like to see your business listed on this page?

 If your business provides an interesting product or service to pilots, flight crews, aircraft, or users of the Gateway Industrial Park Heliport, you should consider listing it here.  To start the listing process, click on the button below
 
Add a business
 

Other Pages about Gateway Industrial Park Heliport

Update a link
 
Copyright © AirNav, LLC. All rights reserved. Privacy Policy  Contact